Tracking 22879 objects as of 20-Apr-2021
HD Live streaming from Space Station
objects crossing your sky now

OPS 8068

Track OPS 8068 now!
10-day predictions
OPS 8068 is classified as:


NORAD ID: 1580
Int'l Code: 1965-072A
Perigee: 639.0 km
Apogee: 974.7 km
Inclination: 98.4 °
Period: 100.9 minutes
Semi major axis: 7177 km
RCS: 0.631 m2 (medium)
Launch date: September 10, 1965
Source: United States (US)
Launch site: AIR FORCE WESTERN TEST RANGE (AFWTR)
aabbcc
Your satellite tracking list
Your tracking list is empty




NASA's NSSDC Master Catalog

Two Line Element Set (TLE):
1 01580U 65072A   21109.81938004  .00000029  00000-0  23590-4 0  9994
2 01580  98.3644 318.9264 0233885 212.0420 146.6363 14.27610984864057
Source of the keplerian elements: AFSPC